User: anonymous   Login
Location: Brabourne
(51.1333°N, 1.0000°E)
Time: 03:41:14
(UTC+00:00)
Language:

CZ-4C R/B - Orbit

View from above orbital plane
View from above orbital plane
View from above satellite
View from above satellite

Ground track
Ground track

The orbit data is extracted from the following two-line orbital elements,

1 39211U 13037D   21267.96243405  .00001301  00000-0  79317-4 0  9997
2 39211  98.0378  61.0776 0123791  79.6837 281.8317 15.06144498449046
Epoch (UTC): 24 September 2021 23:05:54
Eccentricity: 0.0123791
inclination: 98.0378°
perigee height: 462 km
apogee height: 634 km
right ascension of ascending node: 61.0776°
argument of perigee: 79.6837°
revolutions per day: 15.06144498
mean anomaly at epoch: 281.8317°
orbit number at epoch: 44904

The dashed part of the orbit path shows where the satellite is in the earth's shadow,  

DLR